Track QB50P1 (EO-79) now! 10-day predictions QB50P1 (EO-79) is classified as:
1 40025U 14033R 24261.89472561 .00018903 00000-0 14357-2 0 9992 2 40025 98.0540 225.8868 0010383 211.4760 148.5844 15.02188715556787